ONEWEB-0248 (48798 NORAD) Tracking and Keplerian Element Data

This shows tracking and keplerian element data for the satellite.

Feedback or suggestion? Click here.




ElementValue
Catalog48798
NameONEWEB-0248
Epoch Orbit179
Epoch Day170.58334491
Epoch Year2021
RAAN268.8523
Inclination87.4067
Eccentricity0.0009167
Argument of Perigee181.707
Mean Anonmoly39.9901
Mean Motion15.36844555
Decay Rate-0.00820473
L11 48798U 21045AH 21170.58334491 -.00820473 00000-0 -24611-1 0 9997
L22 48798 87.4067 268.8523 0009167 181.7070 39.9901 15.36844555 1795

Live tracking and technical data element details for ONEWEB-0248 (NORAD 48798). ONEWEB-0248 can be tracked NOW for your location showing map with azimuth and elevation plus other details from your city location.

Track the satellite on the map from your city or location and see movement details for azimuth, elevation, latitude, longitude, range, height, and movement on the map or in text.







IsCatalogInMostPopularTable: catalog: 48798, numindb: 8
Update: records affected: 1



GetName: 48798 ONEWEB-0248

Hit Count: updated at: Mon, 21 Jun 2021 04:18:47 GMT